Weather History for Fresno, CA

Change the Weather History Date:

Sunday, January 29, 2012

  Actual Average Record
Temperature  
Mean Temperature 54 °F 48 °F  
Max Temperature 67 °F 57 °F 73 °F (1960)
Min Temperature 40 °F 39 °F 24 °F (1902)
Degree Days  
Heating Degree Days 11    
Month to date heating degree days 452  
Since 1 July heating degree days 1414  
Cooling Degree Days 0    
Month to date cooling degree days 0  
Year to date cooling degree days 0  
Growing Degree Days 4 (Base 50)    
Moisture  
Dew Point 43 °F    
Average Humidity 68    
Maximum Humidity 93    
Minimum Humidity 42    
Precipitation  
Precipitation 0.00 in 0.07 in 1.03 in (1981)
Month to date precipitation 1.37 2.04  
Year to date precipitation 1.37 2.04  
Since 1 July precipitation 2.94 5.70  
Snow  
Snow 0.00 in - - ()
Month to date snowfall 0.0  
Since 1 July snowfall 0.0  
Snow Depth 0.00 in    
Sea Level Pressure  
Sea Level Pressure 30.23 in    
Wind  
Wind Speed 2 mph (NW)    
Max Wind Speed 8 mph    
Max Gust Speed -    
Visibility 4 miles    
Events Fog    
T = Trace of Precipitation, MM = Missing Value Source: NWS Daily Summary

Daily Weather History Graph

Daily Weather History Graph

Search for Another Location

Airport:

Trip Planner

Search our weather history database for the weather conditions in past years. The results will help you decide how hot, cold, wet, or windy it might be!

Date:

Astronomy

Jan. 29, 2012 Rise Set
Actual Time 7:03 AM PST 5:20 PM PST
Civil Twilight 6:36 AM PST 5:48 PM PST
Nautical Twilight 6:05 AM PST 6:19 PM PST
Astronomical Twilight 5:34 AM PST 6:49 PM PST
Moon 10:09 AM PST (1/29) 11:57 PM PST (1/29)
Length of Visible Light 11h 12m
Length of Day
10h 17m
Waxing Crescent, 37% of the Moon is Illuminated
Jan 29
Waxing Crescent
Jan 30
First Quarter
Feb 7
Full
Feb 14
Last Quarter
Feb 21
New

Hourly Weather History & Observations

Time (PST) Temp. Windchill Dew Point Humidity Pressure Visibility Wind Dir Wind Speed Gust Speed Precip Events Conditions
12:53 AM 46.0 °F 44.8 °F 42.1 °F 86% 30.30 in 4.0 mi NE 3.5 mph - N/A   Clear
1:53 AM 45.0 °F - 41.0 °F 86% 30.29 in 4.0 mi Calm Calm - N/A   Clear
2:53 AM 43.0 °F - 39.9 °F 89% 30.29 in 4.0 mi Calm Calm - N/A   Clear
3:53 AM 42.8 °F 40.1 °F 39.2 °F 87% 30.27 in 6.0 mi ENE 4.6 mph - N/A   Clear
4:53 AM 43.0 °F - 39.9 °F 89% 30.26 in 8.0 mi Calm Calm - N/A   Clear
5:53 AM 42.1 °F - 39.0 °F 89% 30.27 in 8.0 mi Calm Calm - N/A   Clear
6:53 AM 41.0 °F - 37.9 °F 89% 30.30 in 9.0 mi Calm Calm - N/A   Scattered Clouds
7:44 AM 41.0 °F - 37.4 °F 87% 30.29 in 1.0 mi Calm Calm - N/A   Mostly Cloudy
7:53 AM 42.1 °F - 39.0 °F 89% 30.29 in 0.2 mi Calm Calm - N/A   Mostly Cloudy
8:08 AM 42.8 °F - 39.2 °F 87% 30.29 in 0.2 mi Calm Calm - N/A Fog Fog
8:39 AM 42.8 °F - 42.8 °F 100% 30.29 in 0.1 mi Calm Calm - N/A Fog Fog
8:53 AM 44.6 °F - 42.8 °F 93% 30.28 in 0.1 mi Calm Calm - N/A Fog Fog
9:04 AM 44.6 °F - 44.6 °F 100% 30.28 in 0.1 mi Calm Calm - N/A Fog Fog
9:14 AM 44.6 °F - 44.6 °F 100% 30.28 in 0.2 mi Calm Calm - N/A Fog Fog
9:36 AM 44.6 °F - 42.8 °F 93% 30.28 in 3.0 mi Calm Calm - N/A   Mostly Cloudy
9:53 AM 46.9 °F - 45.0 °F 93% 30.29 in 3.0 mi Calm Calm - N/A   Mostly Cloudy
10:53 AM 54.0 °F - 46.0 °F 75% 30.28 in 4.0 mi Calm Calm - N/A   Haze
11:53 AM 59.0 °F - 46.0 °F 62% 30.25 in 4.0 mi Calm Calm - N/A   Haze
12:53 PM 63.0 °F - 44.1 °F 50% 30.20 in 6.0 mi Calm Calm - N/A   Haze
1:53 PM 66.0 °F - 45.0 °F 47% 30.18 in 6.0 mi WNW 3.5 mph - N/A   Haze
2:53 PM 66.9 °F - 43.0 °F 42% 30.16 in 7.0 mi NW 4.6 mph - N/A   Mostly Cloudy
3:53 PM 66.0 °F - 44.1 °F 45% 30.15 in 8.0 mi WNW 4.6 mph - N/A   Mostly Cloudy
4:53 PM 62.1 °F - 45.0 °F 53% 30.14 in 10.0 mi NW 4.6 mph - N/A   Mostly Cloudy
5:53 PM 57.2 °F - 44.6 °F 63% 30.14 in 8.0 mi WNW 5.8 mph - N/A   Partly Cloudy
6:53 PM 55.0 °F - 46.0 °F 72% 30.14 in 6.0 mi WNW 4.6 mph - N/A   Haze
7:53 PM 54.0 °F - 46.9 °F 77% 30.14 in 5.0 mi Calm Calm - N/A   Haze
8:53 PM 53.1 °F - 46.9 °F 80% 30.15 in 5.0 mi Calm Calm - N/A   Haze
9:53 PM 50.0 °F - 45.0 °F 83% 30.15 in 4.0 mi Calm Calm - N/A   Haze
10:53 PM 48.9 °F - 45.0 °F 86% 30.16 in 4.0 mi Calm Calm - N/A   Partly Cloudy
11:53 PM 46.9 °F - 44.1 °F 90% 30.15 in 3.0 mi Calm Calm - N/A   Partly Cloudy